Year,Month,Day,Hour,Minute,Value (Times are PST for temperature in C)
2017,09,05,00,00,19.70
2017,09,05,00,01,19.70
2017,09,05,00,02,19.70
2017,09,05,00,03,19.70
2017,09,05,00,04,19.70
2017,09,05,00,05,19.60
2017,09,05,00,06,19.60
2017,09,05,00,07,19.60
2017,09,05,00,08,19.60
2017,09,05,00,09,19.60
2017,09,05,00,10,19.60
2017,09,05,00,11,19.60
2017,09,05,00,12,19.60
2017,09,05,00,13,19.60
2017,09,05,00,14,19.70
2017,09,05,00,15,19.70
2017,09,05,00,16,19.70
2017,09,05,00,17,19.80
2017,09,05,00,18,19.80
2017,09,05,00,19,19.80
2017,09,05,00,20,19.80
2017,09,05,00,21,19.80
2017,09,05,00,22,19.80
2017,09,05,00,23,19.80
2017,09,05,00,24,19.80
2017,09,05,00,25,19.80
2017,09,05,00,26,19.80
2017,09,05,00,27,19.80
2017,09,05,00,28,19.80
2017,09,05,00,29,19.80
2017,09,05,00,30,19.80
2017,09,05,00,31,19.80
2017,09,05,00,32,19.70
2017,09,05,00,33,19.70
2017,09,05,00,34,19.60
2017,09,05,00,35,19.60
2017,09,05,00,36,19.50
2017,09,05,00,37,19.50
2017,09,05,00,38,19.50
2017,09,05,00,39,19.40
2017,09,05,00,40,19.40
2017,09,05,00,41,19.40
2017,09,05,00,42,19.40
2017,09,05,00,43,19.40
2017,09,05,00,44,19.40
2017,09,05,00,45,19.30
2017,09,05,00,46,19.30
2017,09,05,00,47,19.30
2017,09,05,00,48,19.30
2017,09,05,00,49,19.30
2017,09,05,00,50,19.20
2017,09,05,00,51,19.20
2017,09,05,00,52,19.20
2017,09,05,00,53,19.20
2017,09,05,00,54,19.10
2017,09,05,00,55,19.10
2017,09,05,00,56,19.10
2017,09,05,00,57,19.10
2017,09,05,00,58,19.10
2017,09,05,00,59,19.10
2017,09,05,01,00,19.10
2017,09,05,01,01,19.10
2017,09,05,01,02,19.10
2017,09,05,01,03,19.10
2017,09,05,01,04,19.10
2017,09,05,01,05,19.10
2017,09,05,01,06,19.10
2017,09,05,01,07,19.10
2017,09,05,01,08,19.10
2017,09,05,01,09,19.10
2017,09,05,01,10,19.10
2017,09,05,01,11,19.10
2017,09,05,01,12,19.10
2017,09,05,01,13,19.10
2017,09,05,01,14,19.10
2017,09,05,01,15,19.10
2017,09,05,01,16,19.10
2017,09,05,01,17,19.10
2017,09,05,01,18,19.10
2017,09,05,01,19,19.10
2017,09,05,01,20,19.10
2017,09,05,01,21,19.10
2017,09,05,01,22,19.20
2017,09,05,01,23,19.20
2017,09,05,01,24,19.30
2017,09,05,01,25,19.30
2017,09,05,01,26,19.30
2017,09,05,01,27,19.30
2017,09,05,01,28,19.30
2017,09,05,01,29,19.40
2017,09,05,01,30,19.40
2017,09,05,01,31,19.40
2017,09,05,01,32,19.40
2017,09,05,01,33,19.40
2017,09,05,01,34,19.40
2017,09,05,01,35,19.50
2017,09,05,01,36,19.60
2017,09,05,01,37,19.60
2017,09,05,01,38,19.60
2017,09,05,01,39,19.70
2017,09,05,01,40,19.70
2017,09,05,01,41,19.80
2017,09,05,01,42,19.80
2017,09,05,01,43,19.90
2017,09,05,01,44,19.90
2017,09,05,01,45,20.00
2017,09,05,01,46,20.00
2017,09,05,01,47,20.10
2017,09,05,01,48,20.10
2017,09,05,01,49,20.10
2017,09,05,01,50,20.20
2017,09,05,01,51,20.20
2017,09,05,01,52,20.20
2017,09,05,01,53,20.10
2017,09,05,01,54,20.10
2017,09,05,01,55,20.00
2017,09,05,01,56,19.90
2017,09,05,01,57,19.80
2017,09,05,01,58,19.70
2017,09,05,01,59,19.50
2017,09,05,02,00,19.40
2017,09,05,02,01,19.30
2017,09,05,02,02,19.30
2017,09,05,02,03,19.20
2017,09,05,02,04,19.20
2017,09,05,02,05,19.20
2017,09,05,02,06,19.20
2017,09,05,02,07,19.20
2017,09,05,02,08,19.20
2017,09,05,02,09,19.20
2017,09,05,02,10,19.20
2017,09,05,02,11,19.20
2017,09,05,02,12,19.20
2017,09,05,02,13,19.20
2017,09,05,02,14,19.20
2017,09,05,02,15,19.30
2017,09,05,02,16,19.30
2017,09,05,02,17,19.30
2017,09,05,02,18,19.30
2017,09,05,02,19,19.40
2017,09,05,02,20,19.40
2017,09,05,02,21,19.40
2017,09,05,02,22,19.40
2017,09,05,02,23,19.30
2017,09,05,02,24,19.30
2017,09,05,02,25,19.30
2017,09,05,02,26,19.30
2017,09,05,02,27,19.30
2017,09,05,02,28,19.30
2017,09,05,02,29,19.30
2017,09,05,02,30,19.30
2017,09,05,02,31,19.30
2017,09,05,02,32,19.30
2017,09,05,02,33,19.30
2017,09,05,02,34,19.30
2017,09,05,02,35,19.30
2017,09,05,02,36,19.30
2017,09,05,02,37,19.20
2017,09,05,02,38,19.20
2017,09,05,02,39,19.10
2017,09,05,02,40,19.10
2017,09,05,02,41,19.00
2017,09,05,02,42,18.90
2017,09,05,02,43,18.80
2017,09,05,02,44,18.70
2017,09,05,02,45,18.70
2017,09,05,02,46,18.60
2017,09,05,02,47,18.50
2017,09,05,02,48,18.40
2017,09,05,02,49,18.40
2017,09,05,02,50,18.30
2017,09,05,02,51,18.30
2017,09,05,02,52,18.30
2017,09,05,02,53,18.30
2017,09,05,02,54,18.30
2017,09,05,02,55,18.30
2017,09,05,02,56,18.20
2017,09,05,02,57,18.20
2017,09,05,02,58,18.20
2017,09,05,02,59,18.20
2017,09,05,03,00,18.20
2017,09,05,03,01,18.20
2017,09,05,03,02,18.20
2017,09,05,03,03,18.20
2017,09,05,03,04,18.20
2017,09,05,03,05,18.20
2017,09,05,03,06,18.20
2017,09,05,03,07,18.20
2017,09,05,03,08,18.20
2017,09,05,03,09,18.10
2017,09,05,03,10,18.10
2017,09,05,03,11,18.10
2017,09,05,03,12,18.10
2017,09,05,03,13,18.00
2017,09,05,03,14,18.00
2017,09,05,03,15,18.00
2017,09,05,03,16,18.00
2017,09,05,03,17,18.00
2017,09,05,03,18,18.00
2017,09,05,03,19,18.00
2017,09,05,03,20,18.10
2017,09,05,03,21,18.10
2017,09,05,03,22,18.10
2017,09,05,03,23,18.10
2017,09,05,03,24,18.10
2017,09,05,03,25,18.10
2017,09,05,03,26,18.10
2017,09,05,03,27,18.10
2017,09,05,03,28,18.10
2017,09,05,03,29,18.10
2017,09,05,03,30,18.10
2017,09,05,03,31,18.10
2017,09,05,03,32,18.20
2017,09,05,03,33,18.20
2017,09,05,03,34,18.20
2017,09,05,03,35,18.20
2017,09,05,03,36,18.20
2017,09,05,03,37,18.20
2017,09,05,03,38,18.20
2017,09,05,03,39,18.10
2017,09,05,03,40,18.10
2017,09,05,03,41,18.10
2017,09,05,03,42,18.00
2017,09,05,03,43,18.00
2017,09,05,03,44,18.00
2017,09,05,03,45,18.00
2017,09,05,03,46,18.00
2017,09,05,03,47,18.00
2017,09,05,03,48,18.00
2017,09,05,03,49,18.00
2017,09,05,03,50,18.00
2017,09,05,03,51,18.00
2017,09,05,03,52,18.00
2017,09,05,03,53,18.00
2017,09,05,03,54,18.00
2017,09,05,03,55,18.00
2017,09,05,03,56,18.00
2017,09,05,03,57,18.00
2017,09,05,03,58,18.00
2017,09,05,03,59,18.00
2017,09,05,04,00,18.00
2017,09,05,04,01,18.00
2017,09,05,04,02,17.90
2017,09,05,04,03,17.90
2017,09,05,04,04,17.90
2017,09,05,04,05,17.90
2017,09,05,04,06,17.80
2017,09,05,04,07,17.80
2017,09,05,04,08,17.80
2017,09,05,04,09,17.80
2017,09,05,04,10,17.80
2017,09,05,04,11,17.80
2017,09,05,04,12,17.70
2017,09,05,04,13,17.70
2017,09,05,04,14,17.80
2017,09,05,04,15,17.80
2017,09,05,04,16,17.80
2017,09,05,04,17,17.80
2017,09,05,04,18,17.80
2017,09,05,04,19,17.80
2017,09,05,04,20,17.80
2017,09,05,04,21,17.80
2017,09,05,04,22,17.80
2017,09,05,04,23,17.80
2017,09,05,04,24,17.80
2017,09,05,04,25,17.80
2017,09,05,04,26,17.80
2017,09,05,04,27,17.80
2017,09,05,04,28,17.80
2017,09,05,04,29,17.80
2017,09,05,04,30,17.80
2017,09,05,04,31,17.80
2017,09,05,04,32,17.80
2017,09,05,04,33,17.80
2017,09,05,04,34,17.80
2017,09,05,04,35,17.80
2017,09,05,04,36,17.90
2017,09,05,04,37,17.90
2017,09,05,04,38,17.90
2017,09,05,04,39,17.90
2017,09,05,04,40,17.80
2017,09,05,04,41,17.80
2017,09,05,04,42,17.80
2017,09,05,04,43,17.80
2017,09,05,04,44,17.80
2017,09,05,04,45,17.80
2017,09,05,04,46,17.80
2017,09,05,04,47,17.80
2017,09,05,04,48,17.80
2017,09,05,04,49,17.80
2017,09,05,04,50,17.80
2017,09,05,04,51,17.80
2017,09,05,04,52,17.90
2017,09,05,04,53,17.90
2017,09,05,04,54,18.00
2017,09,05,04,55,18.10
2017,09,05,04,56,18.10
2017,09,05,04,57,18.20
2017,09,05,04,58,18.20
2017,09,05,04,59,18.30
2017,09,05,05,00,18.30
2017,09,05,05,01,18.30
2017,09,05,05,02,18.30
2017,09,05,05,03,18.20
2017,09,05,05,04,18.20
2017,09,05,05,05,18.20
2017,09,05,05,06,18.20
2017,09,05,05,07,18.10
2017,09,05,05,08,18.10
2017,09,05,05,09,18.10
2017,09,05,05,10,18.00
2017,09,05,05,11,18.00
2017,09,05,05,12,18.00
2017,09,05,05,13,17.90
2017,09,05,05,14,17.90
2017,09,05,05,15,17.90
2017,09,05,05,16,17.90
2017,09,05,05,17,17.90
2017,09,05,05,18,17.90
2017,09,05,05,19,17.90
2017,09,05,05,20,17.90
2017,09,05,05,21,17.90
2017,09,05,05,22,17.90
2017,09,05,05,23,17.90
2017,09,05,05,24,17.90
2017,09,05,05,25,17.90
2017,09,05,05,26,17.90
2017,09,05,05,27,17.90
2017,09,05,05,28,17.90
2017,09,05,05,29,17.90
2017,09,05,05,30,17.90
2017,09,05,05,31,17.90
2017,09,05,05,32,18.00
2017,09,05,05,33,18.00
2017,09,05,05,34,18.00
2017,09,05,05,35,18.00
2017,09,05,05,36,18.00
2017,09,05,05,37,18.10
2017,09,05,05,38,18.10
2017,09,05,05,39,18.10
2017,09,05,05,40,18.10
2017,09,05,05,41,18.10
2017,09,05,05,42,18.10
2017,09,05,05,43,18.00
2017,09,05,05,44,18.00
2017,09,05,05,45,18.00
2017,09,05,05,46,18.00
2017,09,05,05,47,18.00
2017,09,05,05,48,17.90
2017,09,05,05,49,17.90
2017,09,05,05,50,17.90
2017,09,05,05,51,17.90
2017,09,05,05,52,17.90
2017,09,05,05,53,17.90
2017,09,05,05,54,17.90
2017,09,05,05,55,17.80
2017,09,05,05,56,17.80
2017,09,05,05,57,17.80
2017,09,05,05,58,17.80
2017,09,05,05,59,17.80
2017,09,05,06,00,17.80
2017,09,05,06,01,17.80
2017,09,05,06,02,17.80
2017,09,05,06,03,17.80
2017,09,05,06,04,17.80
2017,09,05,06,05,17.80
2017,09,05,06,06,17.80
2017,09,05,06,07,17.80
2017,09,05,06,08,17.70
2017,09,05,06,09,17.70
2017,09,05,06,10,17.70
2017,09,05,06,11,17.70
2017,09,05,06,12,17.70
2017,09,05,06,13,17.70
2017,09,05,06,14,17.70
2017,09,05,06,15,17.60
2017,09,05,06,16,17.60
2017,09,05,06,17,17.60
2017,09,05,06,18,17.50
2017,09,05,06,19,17.50
2017,09,05,06,20,17.50
2017,09,05,06,21,17.40
2017,09,05,06,22,17.40
2017,09,05,06,23,17.40
2017,09,05,06,24,17.40
2017,09,05,06,25,17.40
2017,09,05,06,26,17.40
2017,09,05,06,27,17.40
2017,09,05,06,28,17.40
2017,09,05,06,29,17.30
2017,09,05,06,30,17.40
2017,09,05,06,31,17.30
2017,09,05,06,32,17.40
2017,09,05,06,33,17.40
2017,09,05,06,34,17.40
2017,09,05,06,35,17.40
2017,09,05,06,36,17.40
2017,09,05,06,37,17.40
2017,09,05,06,38,17.40
2017,09,05,06,39,17.40
2017,09,05,06,40,17.40
2017,09,05,06,41,17.40
2017,09,05,06,42,17.40
2017,09,05,06,43,17.40
2017,09,05,06,44,17.40
2017,09,05,06,45,17.40
2017,09,05,06,46,17.40
2017,09,05,06,47,17.40
2017,09,05,06,48,17.40
2017,09,05,06,49,17.40
2017,09,05,06,50,17.40
2017,09,05,06,51,17.40
2017,09,05,06,52,17.40
2017,09,05,06,53,17.40
2017,09,05,06,54,17.40
2017,09,05,06,55,17.40
2017,09,05,06,56,17.40
2017,09,05,06,57,17.40
2017,09,05,06,58,17.40
2017,09,05,06,59,17.40
2017,09,05,07,00,17.40
2017,09,05,07,01,17.40
2017,09,05,07,02,17.40
2017,09,05,07,03,17.40
2017,09,05,07,04,17.40
2017,09,05,07,05,17.40
2017,09,05,07,06,17.40
2017,09,05,07,07,17.40
2017,09,05,07,08,17.40
2017,09,05,07,09,17.40
2017,09,05,07,10,17.40
2017,09,05,07,11,17.40
2017,09,05,07,12,17.50
2017,09,05,07,13,17.50
2017,09,05,07,14,17.50
2017,09,05,07,15,17.50
2017,09,05,07,16,17.50
2017,09,05,07,17,17.60
2017,09,05,07,18,17.60
2017,09,05,07,19,17.60
2017,09,05,07,20,17.60
2017,09,05,07,21,17.60
2017,09,05,07,22,17.60
2017,09,05,07,23,17.60
2017,09,05,07,24,17.60
2017,09,05,07,25,17.60
2017,09,05,07,26,17.60
2017,09,05,07,27,17.70
2017,09,05,07,28,17.70
2017,09,05,07,29,17.70
2017,09,05,07,30,17.70
2017,09,05,07,31,17.70
2017,09,05,07,32,17.70
2017,09,05,07,33,17.70
2017,09,05,07,34,17.70
2017,09,05,07,35,17.70
2017,09,05,07,36,17.70
2017,09,05,07,37,17.80
2017,09,05,07,38,17.80
2017,09,05,07,39,17.80
2017,09,05,07,40,17.80
2017,09,05,07,41,17.80
2017,09,05,07,42,17.80
2017,09,05,07,43,17.90
2017,09,05,07,44,17.90
2017,09,05,07,45,17.90
2017,09,05,07,46,17.90
2017,09,05,07,47,18.00
2017,09,05,07,48,18.00
2017,09,05,07,49,18.00
2017,09,05,07,50,18.00
2017,09,05,07,51,18.10
2017,09,05,07,52,18.10
2017,09,05,07,53,18.10
2017,09,05,07,54,18.10
2017,09,05,07,55,18.10
2017,09,05,07,56,18.10
2017,09,05,07,57,18.10
2017,09,05,07,58,18.20
2017,09,05,07,59,18.20
2017,09,05,08,00,18.20
2017,09,05,08,01,18.20
2017,09,05,08,02,18.20
2017,09,05,08,03,18.20
2017,09,05,08,04,18.30
2017,09,05,08,05,18.30
2017,09,05,08,06,18.30
2017,09,05,08,07,18.20
2017,09,05,08,08,18.10
2017,09,05,08,09,18.00
2017,09,05,08,10,18.00
2017,09,05,08,11,17.90
2017,09,05,08,12,17.80
2017,09,05,08,13,17.80
2017,09,05,08,14,17.70
2017,09,05,08,15,17.70
2017,09,05,08,16,17.70
2017,09,05,08,17,17.60
2017,09,05,08,18,17.60
2017,09,05,08,19,17.60
2017,09,05,08,20,17.60
2017,09,05,08,21,17.60
2017,09,05,08,22,17.60
2017,09,05,08,23,17.60
2017,09,05,08,24,17.70
2017,09,05,08,25,17.70
2017,09,05,08,26,17.70
2017,09,05,08,27,17.70
2017,09,05,08,28,17.70
2017,09,05,08,29,17.70
2017,09,05,08,30,17.80
2017,09,05,08,31,17.80
2017,09,05,08,32,17.80
2017,09,05,08,33,17.80
2017,09,05,08,34,17.80
2017,09,05,08,35,17.80
2017,09,05,08,36,17.80
2017,09,05,08,37,17.80
2017,09,05,08,38,17.80
2017,09,05,08,39,17.80
2017,09,05,08,40,17.80
2017,09,05,08,41,17.80
2017,09,05,08,42,17.80
2017,09,05,08,43,17.80
2017,09,05,08,44,17.90
2017,09,05,08,45,17.90
2017,09,05,08,46,17.90
2017,09,05,08,47,17.90
2017,09,05,08,48,17.90
2017,09,05,08,49,17.90
2017,09,05,08,50,17.90
2017,09,05,08,51,17.90
2017,09,05,08,52,17.90
2017,09,05,08,53,17.90
2017,09,05,08,54,18.00
2017,09,05,08,55,18.00
2017,09,05,08,56,18.00
2017,09,05,08,57,18.00
2017,09,05,08,58,18.00
2017,09,05,08,59,18.00
2017,09,05,09,00,18.00
2017,09,05,09,01,18.00
2017,09,05,09,02,18.10
2017,09,05,09,03,18.10
2017,09,05,09,04,18.10
2017,09,05,09,05,18.10
2017,09,05,09,06,18.10
2017,09,05,09,07,18.20
2017,09,05,09,08,18.20
2017,09,05,09,09,18.20
2017,09,05,09,10,18.20
2017,09,05,09,11,18.20
2017,09,05,09,12,18.30
2017,09,05,09,13,18.30
2017,09,05,09,14,18.30
2017,09,05,09,15,18.40
2017,09,05,09,16,18.40
2017,09,05,09,17,18.40
2017,09,05,09,18,18.50
2017,09,05,09,19,18.60
2017,09,05,09,20,18.60
2017,09,05,09,21,18.70
2017,09,05,09,22,18.80
2017,09,05,09,23,18.80
2017,09,05,09,24,18.90
2017,09,05,09,25,18.90
2017,09,05,09,26,19.00
2017,09,05,09,27,19.10
2017,09,05,09,28,19.10
2017,09,05,09,29,19.20
2017,09,05,09,30,19.30
2017,09,05,09,31,19.30
2017,09,05,09,32,19.40
2017,09,05,09,33,19.50
2017,09,05,09,34,19.50
2017,09,05,09,35,19.60
2017,09,05,09,36,19.60
2017,09,05,09,37,19.70
2017,09,05,09,38,19.70
2017,09,05,09,39,19.70
2017,09,05,09,40,19.70
2017,09,05,09,41,19.70
2017,09,05,09,42,19.70
2017,09,05,09,43,19.60
2017,09,05,09,44,19.60
2017,09,05,09,45,19.50
2017,09,05,09,46,19.50
2017,09,05,09,47,19.40
2017,09,05,09,48,19.40
2017,09,05,09,49,19.30
2017,09,05,09,50,19.30
2017,09,05,09,51,19.20
2017,09,05,09,52,19.20
2017,09,05,09,53,19.20
2017,09,05,09,54,19.20
2017,09,05,09,55,19.30
2017,09,05,09,56,19.30
2017,09,05,09,57,19.30
2017,09,05,09,58,19.20
2017,09,05,09,59,19.20
2017,09,05,10,00,19.30
2017,09,05,10,01,19.30
2017,09,05,10,02,19.30
2017,09,05,10,03,19.30
2017,09,05,10,04,19.30
2017,09,05,10,05,19.40
2017,09,05,10,06,19.40
2017,09,05,10,07,19.40
2017,09,05,10,08,19.40
2017,09,05,10,09,19.50
2017,09,05,10,10,19.50
2017,09,05,10,11,19.50
2017,09,05,10,12,19.60
2017,09,05,10,13,19.60
2017,09,05,10,14,19.70
2017,09,05,10,15,19.70
2017,09,05,10,16,19.80
2017,09,05,10,17,19.80
2017,09,05,10,18,19.90
2017,09,05,10,19,19.90
2017,09,05,10,20,20.00
2017,09,05,10,21,20.10
2017,09,05,10,22,20.10
2017,09,05,10,23,20.20
2017,09,05,10,24,20.30
2017,09,05,10,25,20.30
2017,09,05,10,26,20.40
2017,09,05,10,27,20.50
2017,09,05,10,28,20.50
2017,09,05,10,29,20.60
2017,09,05,10,30,20.60
2017,09,05,10,31,20.60
2017,09,05,10,32,20.60
2017,09,05,10,33,20.70
2017,09,05,10,34,20.70
2017,09,05,10,35,20.70
2017,09,05,10,36,20.70
2017,09,05,10,37,20.70
2017,09,05,10,38,20.70
2017,09,05,10,39,20.70
2017,09,05,10,40,20.70
2017,09,05,10,41,20.80
2017,09,05,10,42,20.80
2017,09,05,10,43,20.80
2017,09,05,10,44,20.90
2017,09,05,10,45,20.90
2017,09,05,10,46,21.00
2017,09,05,10,47,21.00
2017,09,05,10,48,21.10
2017,09,05,10,49,21.20
2017,09,05,10,50,21.30
2017,09,05,10,51,21.30
2017,09,05,10,52,21.40
2017,09,05,10,53,21.50
2017,09,05,10,54,21.60
2017,09,05,10,55,21.60
2017,09,05,10,56,21.70
2017,09,05,10,57,21.70
2017,09,05,10,58,21.80
2017,09,05,10,59,21.80
2017,09,05,11,00,21.80
2017,09,05,11,01,21.80
2017,09,05,11,02,21.80
2017,09,05,11,03,21.80
2017,09,05,11,04,21.80
2017,09,05,11,05,21.90
2017,09,05,11,06,21.90
2017,09,05,11,07,21.90
2017,09,05,11,08,21.90
2017,09,05,11,09,22.00
2017,09,05,11,10,22.00
2017,09,05,11,11,22.00
2017,09,05,11,12,22.00
2017,09,05,11,13,22.10
2017,09,05,11,14,22.10
2017,09,05,11,15,22.10
2017,09,05,11,16,22.10
2017,09,05,11,17,22.10
2017,09,05,11,18,22.10
2017,09,05,11,19,22.10
2017,09,05,11,20,22.00
2017,09,05,11,21,21.90
2017,09,05,11,22,21.90
2017,09,05,11,23,21.90
2017,09,05,11,24,21.80
2017,09,05,11,25,21.80
2017,09,05,11,26,21.80
2017,09,05,11,27,21.80
2017,09,05,11,28,21.90
2017,09,05,11,29,21.90
2017,09,05,11,30,21.90
2017,09,05,11,31,22.00
2017,09,05,11,32,22.00
2017,09,05,11,33,22.10
2017,09,05,11,34,22.20
2017,09,05,11,35,22.20
2017,09,05,11,36,22.30
2017,09,05,11,37,22.40
2017,09,05,11,38,22.40
2017,09,05,11,39,22.50
2017,09,05,11,40,22.60
2017,09,05,11,41,22.70
2017,09,05,11,42,22.80
2017,09,05,11,43,22.80
2017,09,05,11,44,22.90
2017,09,05,11,45,22.90
2017,09,05,11,46,23.00
2017,09,05,11,47,23.10
2017,09,05,11,48,23.20
2017,09,05,11,49,23.30
2017,09,05,11,50,23.30
2017,09,05,11,51,23.40
2017,09,05,11,52,23.50
2017,09,05,11,53,23.50
2017,09,05,11,54,23.60
2017,09,05,11,55,23.60
2017,09,05,11,56,23.70
2017,09,05,11,57,23.80
2017,09,05,11,58,23.80
2017,09,05,11,59,23.90
2017,09,05,12,00,24.00
2017,09,05,12,01,24.10
2017,09,05,12,02,24.10
2017,09,05,12,03,24.20
2017,09,05,12,04,24.20
2017,09,05,12,05,24.30
2017,09,05,12,06,24.40
2017,09,05,12,07,24.40
2017,09,05,12,08,24.50
2017,09,05,12,09,24.50
2017,09,05,12,10,24.60
2017,09,05,12,11,24.60
2017,09,05,12,12,24.70
2017,09,05,12,13,24.70
2017,09,05,12,14,24.80
2017,09,05,12,15,24.80
2017,09,05,12,16,24.90
2017,09,05,12,17,25.00
2017,09,05,12,18,25.10
2017,09,05,12,19,25.20
2017,09,05,12,20,25.20
2017,09,05,12,21,25.30
2017,09,05,12,22,25.20
2017,09,05,12,23,25.20
2017,09,05,12,24,25.20
2017,09,05,12,25,25.20
2017,09,05,12,26,25.10
2017,09,05,12,27,25.10
2017,09,05,12,28,25.10
2017,09,05,12,29,25.00
2017,09,05,12,30,25.00
2017,09,05,12,31,25.00
2017,09,05,12,32,25.00
2017,09,05,12,33,25.00
2017,09,05,12,34,25.00
2017,09,05,12,35,24.90
2017,09,05,12,36,25.00
2017,09,05,12,37,25.00
2017,09,05,12,38,25.10
2017,09,05,12,39,25.10
2017,09,05,12,40,25.20
2017,09,05,12,41,25.20
2017,09,05,12,42,25.30
2017,09,05,12,43,25.30
2017,09,05,12,44,25.40
2017,09,05,12,45,25.40
2017,09,05,12,46,25.50
2017,09,05,12,47,25.50
2017,09,05,12,48,25.60
2017,09,05,12,49,25.70
2017,09,05,12,50,25.80
2017,09,05,12,51,25.90
2017,09,05,12,52,26.00
2017,09,05,12,53,26.10
2017,09,05,12,54,26.20
2017,09,05,12,55,26.30
2017,09,05,12,56,26.50
2017,09,05,12,57,26.60
2017,09,05,12,58,26.70
2017,09,05,12,59,26.80
2017,09,05,13,00,26.90
2017,09,05,13,01,26.90
2017,09,05,13,02,27.00
2017,09,05,13,03,27.00
2017,09,05,13,04,27.10
2017,09,05,13,05,27.10
2017,09,05,13,06,27.10
2017,09,05,13,07,27.10
2017,09,05,13,08,27.10
2017,09,05,13,09,27.10
2017,09,05,13,10,27.10
2017,09,05,13,11,27.10
2017,09,05,13,12,27.00
2017,09,05,13,13,27.10
2017,09,05,13,14,27.10
2017,09,05,13,15,27.10
2017,09,05,13,16,27.10
2017,09,05,13,17,27.10
2017,09,05,13,18,27.20
2017,09,05,13,19,27.20
2017,09,05,13,20,27.30
2017,09,05,13,21,27.30
2017,09,05,13,22,27.30
2017,09,05,13,23,27.40
2017,09,05,13,24,27.40
2017,09,05,13,25,27.40
2017,09,05,13,26,27.40
2017,09,05,13,27,27.50
2017,09,05,13,28,27.50
2017,09,05,13,29,27.60
2017,09,05,13,30,27.60
2017,09,05,13,31,27.70
2017,09,05,13,32,27.70
2017,09,05,13,33,27.70
2017,09,05,13,34,27.70
2017,09,05,13,35,27.70
2017,09,05,13,36,27.70
2017,09,05,13,37,27.70
2017,09,05,13,38,27.70
2017,09,05,13,39,27.60
2017,09,05,13,40,27.60
2017,09,05,13,41,27.60
2017,09,05,13,42,27.60
2017,09,05,13,43,27.50
2017,09,05,13,44,27.50
2017,09,05,13,45,27.50
2017,09,05,13,46,27.40
2017,09,05,13,47,27.40
2017,09,05,13,48,27.30
2017,09,05,13,49,27.30
2017,09,05,13,50,27.20
2017,09,05,13,51,27.20
2017,09,05,13,52,27.20
2017,09,05,13,53,27.30
2017,09,05,13,54,27.30
2017,09,05,13,55,27.30
2017,09,05,13,56,27.30
2017,09,05,13,57,27.30
2017,09,05,13,58,27.20
2017,09,05,13,59,27.20
2017,09,05,14,00,27.10
2017,09,05,14,01,27.10
2017,09,05,14,02,27.00
2017,09,05,14,03,27.00
2017,09,05,14,04,26.90
2017,09,05,14,05,26.80
2017,09,05,14,06,26.80
2017,09,05,14,07,26.70
2017,09,05,14,08,26.60
2017,09,05,14,09,26.50
2017,09,05,14,10,26.40
2017,09,05,14,11,26.40
2017,09,05,14,12,26.40
2017,09,05,14,13,26.40
2017,09,05,14,14,26.50
2017,09,05,14,15,26.60
2017,09,05,14,16,26.60
2017,09,05,14,17,26.70
2017,09,05,14,18,26.80
2017,09,05,14,19,26.80
2017,09,05,14,20,26.80
2017,09,05,14,21,26.80
2017,09,05,14,22,26.90
2017,09,05,14,23,26.90
2017,09,05,14,24,26.90
2017,09,05,14,25,26.90
2017,09,05,14,26,26.90
2017,09,05,14,27,26.90
2017,09,05,14,28,26.90
2017,09,05,14,29,27.00
2017,09,05,14,30,27.10
2017,09,05,14,31,27.10
2017,09,05,14,32,27.20
2017,09,05,14,33,27.20
2017,09,05,14,34,27.30
2017,09,05,14,35,27.30
2017,09,05,14,36,27.30
2017,09,05,14,37,27.40
2017,09,05,14,38,27.40
2017,09,05,14,39,27.50
2017,09,05,14,40,27.50
2017,09,05,14,41,27.60
2017,09,05,14,42,27.50
2017,09,05,14,43,27.50
2017,09,05,14,44,27.50
2017,09,05,14,45,27.40
2017,09,05,14,46,27.40
2017,09,05,14,47,27.40
2017,09,05,14,48,27.40
2017,09,05,14,49,27.40
2017,09,05,14,50,27.40
2017,09,05,14,51,27.40
2017,09,05,14,52,27.40
2017,09,05,14,53,27.40
2017,09,05,14,54,27.30
2017,09,05,14,55,27.30
2017,09,05,14,56,27.30
2017,09,05,14,57,27.30
2017,09,05,14,58,27.30
2017,09,05,14,59,27.30
2017,09,05,15,00,27.30
2017,09,05,15,01,27.30
2017,09,05,15,02,27.30
2017,09,05,15,03,27.30
2017,09,05,15,04,27.30
2017,09,05,15,05,27.30
2017,09,05,15,06,27.30
2017,09,05,15,07,27.30
2017,09,05,15,08,27.30
2017,09,05,15,09,27.30
2017,09,05,15,10,27.30
2017,09,05,15,11,27.40
2017,09,05,15,12,27.40
2017,09,05,15,13,27.50
2017,09,05,15,14,27.60
2017,09,05,15,15,27.60
2017,09,05,15,16,27.70
2017,09,05,15,17,27.70
2017,09,05,15,18,27.70
2017,09,05,15,19,27.80
2017,09,05,15,20,27.90
2017,09,05,15,21,27.90
2017,09,05,15,22,28.00
2017,09,05,15,23,28.10
2017,09,05,15,24,28.10
2017,09,05,15,25,28.20
2017,09,05,15,26,28.10
2017,09,05,15,27,28.10
2017,09,05,15,28,28.20
2017,09,05,15,29,28.10
2017,09,05,15,30,28.10
2017,09,05,15,31,28.10
2017,09,05,15,32,28.10
2017,09,05,15,33,28.10
2017,09,05,15,34,28.00
2017,09,05,15,35,28.00
2017,09,05,15,36,27.90
2017,09,05,15,37,27.90
2017,09,05,15,38,27.90
2017,09,05,15,39,27.90
2017,09,05,15,40,27.90
2017,09,05,15,41,27.90
2017,09,05,15,42,27.90
2017,09,05,15,43,27.90
2017,09,05,15,44,27.90
2017,09,05,15,45,27.80
2017,09,05,15,46,27.70
2017,09,05,15,47,27.60
2017,09,05,15,48,27.60
2017,09,05,15,49,27.50
2017,09,05,15,50,27.50
2017,09,05,15,51,27.40
2017,09,05,15,52,27.40
2017,09,05,15,53,27.40
2017,09,05,15,54,27.30
2017,09,05,15,55,27.30
2017,09,05,15,56,27.20
2017,09,05,15,57,27.20
2017,09,05,15,58,27.20
2017,09,05,15,59,27.20
2017,09,05,16,00,27.20
2017,09,05,16,01,27.20
2017,09,05,16,02,27.20
2017,09,05,16,03,27.20
2017,09,05,16,04,27.20
2017,09,05,16,05,27.10
2017,09,05,16,06,27.10
2017,09,05,16,07,27.00
2017,09,05,16,08,26.90
2017,09,05,16,09,26.90
2017,09,05,16,10,26.80
2017,09,05,16,11,26.80
2017,09,05,16,12,26.80
2017,09,05,16,13,26.70
2017,09,05,16,14,26.70
2017,09,05,16,15,26.70
2017,09,05,16,16,26.70
2017,09,05,16,17,26.80
2017,09,05,16,18,26.80
2017,09,05,16,19,26.80
2017,09,05,16,20,26.80
2017,09,05,16,21,26.80
2017,09,05,16,22,26.80
2017,09,05,16,23,26.70
2017,09,05,16,24,26.60
2017,09,05,16,25,26.50
2017,09,05,16,26,26.40
2017,09,05,16,27,26.20
2017,09,05,16,28,26.10
2017,09,05,16,29,25.90
2017,09,05,16,30,25.80
2017,09,05,16,31,25.70
2017,09,05,16,32,25.70
2017,09,05,16,33,25.60
2017,09,05,16,34,25.50
2017,09,05,16,35,25.40
2017,09,05,16,36,25.40
2017,09,05,16,37,25.40
2017,09,05,16,38,25.40
2017,09,05,16,39,25.40
2017,09,05,16,40,25.40
2017,09,05,16,41,25.40
2017,09,05,16,42,25.40
2017,09,05,16,43,25.40
2017,09,05,16,44,25.40
2017,09,05,16,45,25.40
2017,09,05,16,46,25.50
2017,09,05,16,47,25.50
2017,09,05,16,48,25.50
2017,09,05,16,49,25.50
2017,09,05,16,50,25.60
2017,09,05,16,51,25.60
2017,09,05,16,52,25.60
2017,09,05,16,53,25.60
2017,09,05,16,54,25.70
2017,09,05,16,55,25.70
2017,09,05,16,56,25.70
2017,09,05,16,57,25.80
2017,09,05,16,58,25.80
2017,09,05,16,59,25.80
2017,09,05,17,00,25.80
2017,09,05,17,01,25.80
2017,09,05,17,02,25.80
2017,09,05,17,03,25.80
2017,09,05,17,04,25.80
2017,09,05,17,05,25.80
2017,09,05,17,06,25.80
2017,09,05,17,07,25.80
2017,09,05,17,08,25.80
2017,09,05,17,09,25.70
2017,09,05,17,10,25.70
2017,09,05,17,11,25.70
2017,09,05,17,12,25.70
2017,09,05,17,13,25.70
2017,09,05,17,14,25.60
2017,09,05,17,15,25.60
2017,09,05,17,16,25.60
2017,09,05,17,17,25.60
2017,09,05,17,18,25.60
2017,09,05,17,19,25.50